Location: Central Falls
(41.8900°N, 71.3929°W)
Time: 07:40:10
(UTC+00:00)

Tiros 1 despin weight - Pass Details

Date: 05 December 2023
Orbit: 581 x 624 km, 48.2° (Epoch: 29 February)

Event Time Altitude Azimuth Distance (km) Brightness Sun altitude
Rises 03:09:30 0° 296° (WNW) 2,798 - -63.4°
Reaches altitude 10° 03:11:50 10° 301° (WNW) 1,898 - -63.7°
Drops below altitude 10° 03:20:19 10° 95° (E) 1,908 - -64.8°
Exits shadow 03:39:49 -39° 111° (ESE) 8,991 ? -67.2°
Enters shadow 04:41:37 -24° 300° (WNW) 6,334 ? -70.4°
Maximum altitude 04:57:19 46° 216° (SW) 789 - -69.9°
Sets 05:03:52 0° 137° (SE) 2,821 - -69.6°
